Ely, MN

10:16 AM CDT on April 20, 2018 (GMT -0500)
Ely Municipal

Weather History for KELO - April, 2013

Change the Weather History Date:

Tuesday, April 23, 2013

  Actual Average Record
Temperature  
Mean Temperature 31 °F -  
Max Temperature 39 °F 52 °F 71 °F (2006)
Min Temperature 23 °F 27 °F 12 °F (2015)
Degree Days  
Heating Degree Days 34    
Moisture  
Dew Point 17 °F    
Average Humidity 57    
Maximum Humidity 93    
Minimum Humidity 28    
Precipitation  
Precipitation 0.00 in - - ()
Sea Level Pressure  
Sea Level Pressure 30.03 in    
Wind  
Wind Speed 5 mph (NNW)    
Max Wind Speed 14 mph    
Max Gust Speed 21 mph    
Visibility 10 miles    
Events Snow    
Averages and records for this station are not official NWS values.
T = Trace of Precipitation, MM = Missing Value Source: NWS Daily Summary

Daily Weather History Graph

Daily Weather History Graph

Search for Another Location

Airport or City:

Astronomy

Apr. 23, 2013 Rise Set
Actual Time 6:02 AM CDT 8:09 PM CDT
Civil Twilight 5:29 AM CDT 8:42 PM CDT
Nautical Twilight 4:48 AM CDT 9:24 PM CDT
Astronomical Twilight 4:01 AM CDT 10:11 PM CDT
Moon 5:57 PM CDT (4/23) 4:41 AM CDT (4/23)
Length of Visible Light 15h 13m
Length of Day
14h 06m
Waxing Gibbous, 94% of the Moon is Illuminated
Apr 23
Waxing Gibbous
Apr 25
Full
May 2
Last Quarter
May 9
New
May 17
First Quarter

Hourly Weather History & Observations

Time (CDT) Temp. Windchill Dew Point Humidity Pressure Visibility Wind Dir Wind Speed Gust Speed Precip Events Conditions
12:13 AM 30.2 °F 26.7 °F 23.0 °F 75% 30.14 in 10.0 mi NNW 3.5 mph - N/A   Overcast
12:33 AM 30.2 °F 24.3 °F 24.8 °F 80% 30.14 in 10.0 mi NW 5.8 mph - N/A   Overcast
12:53 AM 30.2 °F 25.4 °F 24.8 °F 80% 30.14 in 10.0 mi NNW 4.6 mph - N/A   Overcast
1:12 AM 30.2 °F - 24.8 °F 80% 30.14 in 10.0 mi Calm Calm - N/A   Overcast
1:33 AM 32.0 °F 26.4 °F 21.2 °F 64% 30.14 in 10.0 mi North 5.8 mph - N/A   Overcast
1:53 AM 30.2 °F 25.4 °F 23.0 °F 75% 30.13 in 10.0 mi NNE 4.6 mph - N/A   Overcast
2:12 AM 30.2 °F 25.4 °F 24.8 °F 80% 30.12 in 5.0 mi NE 4.6 mph - N/A Snow Light Snow
2:33 AM 28.4 °F 23.3 °F 26.6 °F 93% 30.12 in 3.0 mi NE 4.6 mph - N/A Snow Light Snow
2:53 AM 28.4 °F 22.2 °F 26.6 °F 93% 30.11 in 7.0 mi NE 5.8 mph - N/A Snow Light Snow
3:13 AM 28.4 °F 23.3 °F 26.6 °F 93% 30.11 in 7.0 mi NNE 4.6 mph - N/A Snow Light Snow
3:32 AM 28.4 °F - 26.6 °F 93% 30.12 in 10.0 mi Calm Calm - N/A   Overcast
3:53 AM 28.4 °F 24.6 °F 26.6 °F 93% 30.11 in 10.0 mi NNE 3.5 mph - N/A   Overcast
4:13 AM 28.4 °F 23.3 °F 24.8 °F 86% 30.10 in 10.0 mi NE 4.6 mph - N/A   Overcast
4:32 AM 28.4 °F 24.6 °F 24.8 °F 86% 30.10 in 10.0 mi NNE 3.5 mph - N/A   Overcast
4:53 AM 28.4 °F - 24.8 °F 86% 30.10 in 10.0 mi Calm Calm - N/A   Mostly Cloudy
5:12 AM 28.4 °F - 24.8 °F 86% 30.09 in 10.0 mi Calm Calm - N/A   Overcast
5:33 AM 28.4 °F - 24.8 °F 86% 30.08 in 10.0 mi Calm Calm - N/A   Scattered Clouds
5:53 AM 28.4 °F - 24.8 °F 86% 30.08 in 10.0 mi Calm Calm - N/A   Scattered Clouds
6:12 AM 28.4 °F 23.3 °F 23.0 °F 80% 30.07 in 10.0 mi NNW 4.6 mph - N/A   Clear
6:33 AM 26.6 °F 21.2 °F 21.2 °F 80% 30.07 in 10.0 mi NNW 4.6 mph - N/A   Clear
6:53 AM 26.6 °F 21.2 °F 21.2 °F 80% 30.08 in 10.0 mi NNW 4.6 mph - N/A   Clear
7:12 AM 26.6 °F 19.1 °F 21.2 °F 80% 30.08 in 10.0 mi NW 6.9 mph - N/A   Scattered Clouds
7:33 AM 28.4 °F 22.2 °F 21.2 °F 74% 30.08 in 10.0 mi NW 5.8 mph - N/A   Mostly Cloudy
7:53 AM 28.4 °F 19.7 °F 21.2 °F 74% 30.08 in 10.0 mi NNW 9.2 mph - N/A   Scattered Clouds
8:12 AM 30.2 °F 21.9 °F 19.4 °F 64% 30.08 in 10.0 mi NW 9.2 mph - N/A   Clear
8:33 AM 30.2 °F 22.6 °F 19.4 °F 64% 30.08 in 10.0 mi NW 8.1 mph - N/A   Unknown
8:53 AM 30.2 °F 22.6 °F 19.4 °F 64% 30.08 in 10.0 mi NNW 8.1 mph 16.1 mph N/A   Clear
9:12 AM 30.2 °F 20.8 °F 17.6 °F 60% 30.07 in 10.0 mi NNW 11.5 mph - N/A   Scattered Clouds
9:33 AM 32.0 °F 24.2 °F 17.6 °F 55% 30.07 in 10.0 mi NNW 9.2 mph 17.3 mph N/A   Scattered Clouds
9:53 AM 30.2 °F 21.3 °F 17.6 °F 60% 30.06 in 10.0 mi NW 10.4 mph 16.1 mph N/A   Mostly Cloudy
10:12 AM 33.8 °F 27.7 °F 15.8 °F 48% 30.05 in 10.0 mi NNE 6.9 mph - N/A   Scattered Clouds
10:33 AM 33.8 °F 25.8 °F 14.0 °F 44% 30.05 in 10.0 mi NNW 10.4 mph 19.6 mph N/A   Scattered Clouds
10:53 AM 33.8 °F 26.4 °F 12.2 °F 41% 30.05 in 10.0 mi North 9.2 mph 17.3 mph N/A   Scattered Clouds
11:12 AM 35.6 °F 26.6 °F 14.0 °F 41% 30.05 in 10.0 mi WNW 13.8 mph 19.6 mph N/A   Scattered Clouds
11:33 AM 35.6 °F 28.0 °F 12.2 °F 38% 30.04 in 10.0 mi NW 10.4 mph 19.6 mph N/A   Clear
11:52 AM 35.6 °F 28.6 °F 12.2 °F 38% 30.04 in 10.0 mi NNW 9.2 mph 20.7 mph N/A   Clear
12:13 PM 35.6 °F 28.6 °F 12.2 °F 38% 30.02 in 10.0 mi North 9.2 mph 19.6 mph N/A   Clear
12:33 PM 35.6 °F 28.0 °F 10.4 °F 35% 30.02 in 10.0 mi WNW 10.4 mph 17.3 mph N/A   Clear
12:52 PM 37.4 °F 32.1 °F 10.4 °F 33% 30.01 in 10.0 mi North 6.9 mph 16.1 mph N/A   Clear
1:13 PM 37.4 °F 28.9 °F 10.4 °F 33% 30.01 in 10.0 mi NNW 13.8 mph 18.4 mph N/A   Clear
1:33 PM 37.4 °F 32.8 °F 10.4 °F 33% 30.00 in 10.0 mi NNW 5.8 mph 19.6 mph N/A   Clear
1:52 PM 37.4 °F 29.3 °F 10.4 °F 33% 30.00 in 10.0 mi NW 12.7 mph 20.7 mph N/A   Clear
2:13 PM 37.4 °F 31.4 °F 10.4 °F 33% 29.99 in 10.0 mi WNW 8.1 mph 20.7 mph N/A   Clear
2:33 PM 37.4 °F 30.3 °F 10.4 °F 33% 29.99 in 10.0 mi NNW 10.4 mph 20.7 mph N/A   Clear
2:52 PM 39.2 °F 32.5 °F 10.4 °F 31% 29.99 in 10.0 mi NW 10.4 mph - N/A   Clear
3:13 PM 39.2 °F 37.0 °F 8.6 °F 28% 29.99 in 10.0 mi NNW 3.5 mph 20.7 mph N/A   Clear
3:33 PM 39.2 °F 33.0 °F 10.4 °F 31% 29.98 in 10.0 mi WNW 9.2 mph 18.4 mph N/A   Clear
3:52 PM 39.2 °F 34.2 °F 8.6 °F 28% 29.98 in 10.0 mi NNW 6.9 mph 16.1 mph N/A   Clear
4:13 PM 39.2 °F 33.6 °F 8.6 °F 28% 29.97 in 10.0 mi NNW 8.1 mph - N/A   Clear
4:33 PM 39.2 °F 35.9 °F 10.4 °F 31% 29.97 in 10.0 mi NNW 4.6 mph - N/A   Clear
4:53 PM 39.2 °F 33.6 °F 10.4 °F 31% 29.97 in 10.0 mi NNW 8.1 mph - N/A   Clear
5:13 PM 39.2 °F 35.9 °F 10.4 °F 31% 29.96 in 10.0 mi North 4.6 mph 16.1 mph N/A   Clear
5:33 PM 39.2 °F 35.0 °F 10.4 °F 31% 29.96 in 10.0 mi North 5.8 mph - N/A   Clear
5:53 PM 39.2 °F 34.2 °F 10.4 °F 31% 29.97 in 10.0 mi North 6.9 mph - N/A   Clear
6:13 PM 39.2 °F 34.2 °F 10.4 °F 31% 29.96 in 10.0 mi NW 6.9 mph - N/A   Clear
6:33 PM 39.2 °F 35.0 °F 10.4 °F 31% 29.96 in 10.0 mi North 5.8 mph - N/A   Clear
6:52 PM 39.2 °F 35.9 °F 10.4 °F 31% 29.96 in 10.0 mi NW 4.6 mph - N/A   Clear
7:13 PM 37.4 °F 33.8 °F 10.4 °F 33% 29.96 in 10.0 mi NNW 4.6 mph - N/A   Clear
7:33 PM 37.4 °F 32.8 °F 10.4 °F 33% 29.96 in 10.0 mi NW 5.8 mph - N/A   Clear
7:52 PM 35.6 °F - 10.4 °F 35% 29.96 in 10.0 mi Calm Calm - N/A   Clear
8:13 PM 35.6 °F - 8.6 °F 33% 29.96 in 10.0 mi Calm Calm - N/A   Clear
8:33 PM 30.2 °F - 12.2 °F 47% 29.96 in 10.0 mi Calm Calm - N/A   Clear
8:52 PM 30.2 °F - 14.0 °F 51% 29.96 in 10.0 mi Calm Calm - N/A   Clear
9:13 PM 28.4 °F - 15.8 °F 59% 29.97 in 10.0 mi Calm Calm - N/A   Clear
9:33 PM 26.6 °F - 15.8 °F 64% 29.97 in 10.0 mi Calm Calm - N/A   Clear
9:52 PM 26.6 °F - 17.6 °F 69% 29.96 in 10.0 mi Calm Calm - N/A   Clear
10:13 PM 24.8 °F - 15.8 °F 69% 29.96 in 10.0 mi Calm Calm - N/A   Clear
10:32 PM 24.8 °F - 15.8 °F 69% 29.95 in 10.0 mi Calm Calm - N/A   Clear
10:53 PM 24.8 °F - 17.6 °F 74% 29.95 in 10.0 mi Calm Calm - N/A   Clear
11:13 PM 23.0 °F - 17.6 °F 80% 29.95 in 10.0 mi Calm Calm - N/A   Clear
11:32 PM 23.0 °F 17.0 °F 15.8 °F 74% 29.95 in 10.0 mi WSW 4.6 mph - N/A   Clear
11:53 PM 24.8 °F 20.5 °F 15.8 °F 69% 29.95 in 10.0 mi WSW 3.5 mph - N/A   Clear